Location: Majestic Skies Ranch
(34.0000°N, 105.9300°W)
Time: 03:27:03
(UTC-06:00)

ISS - Visible Passes

Search period start: 23 August 2014 00:00
Search period end: 02 September 2014 00:00
Orbit: 413 x 419 km, 51.6° (Epoch: 23 August)

Date Brightness Start Highest point End Pass type
(mag) Time Alt. Az. Time Alt. Az. Time Alt. Az.
23 Aug -3.2 20:41:56 10° NW 20:45:15 64° NE 20:46:52 27° ESE visible
24 Aug -1.0 21:30:49 10° W 21:33:09 18° SW 21:33:22 18° SW visible
25 Aug -1.9 20:41:38 10° WNW 20:44:41 34° SW 20:47:03 15° SSE visible
27 Aug -0.2 20:43:25 10° WSW 20:43:49 10° SW 20:44:14 10° SW visible
